Temp
61 58 56 60 50 46 41 47 50 56 58 59 61 59 60 57 59 53 63 68 69 69 70 71 72 73 73 72 72 72 71 71 71 71 71 70 70 71 71 70 71 70 70 71 70 70 69 68 68
57 63 58 51 44 38 41 48 52 54 60 60 61 59 58 54 59 62 64 69 70 69 70 70 71 72 72 72 71 71 71 71 71 70 70 70 70 70 70 70 69 71 71 71 69 69 69 68 68
59 60 54 47 39 39 42 51 50 59 61 58 57 59 56 57 60 65 67 70 69 67 69 70 70 72 72 71 71 71 71 70 70 70 70 70 70 70 70 70 70 70 69 70 70 69 68 67 67
58 55 51 43 39 45 48 51 54 58 63 62 58 55 57 63 63 65 71 70 67 66 68 70 71 72 71 71 71 70 70 70 70 70 70 70 69 70 69 69 69 68 69 69 68 67 68 67 67
52 48 42 37 40 46 49 55 57 57 56 59 58 55 55 62 66 69 69 68 65 64 66 69 70 71 71 71 71 70 70 70 70 69 69 69 69 69 69 68 68 68 68 67 67 68 67 67 67
49 46 38 35 39 47 50 55 54 54 57 59 56 55 55 62 66 67 68 65 66 65 66 68 67 69 70 70 70 70 70 69 68 68 68 68 68 68 68 67 68 68 68 68 68 67 67 67 67
46 41 36 34 39 44 49 54 52 53 55 59 61 53 54 62 66 66 64 64 64 64 64 64 65 66 66 67 67 68 68 68 68 67 67 66 66 66 66 67 67 67 67 66 67 66 66 66 66
46 44 35 36 39 43 49 55 56 52 55 59 58 53 54 60 64 64 63 62 62 63 63 61 61 61 61 61 64 65 66 66 66 65 64 63 64 64 63 62 66 66 67 66 65 64 64 64 64
46 39 35 39 41 45 51 52 57 56 54 56 55 54 57 61 63 63 62 62 62 62 61 61 60 59 58 58 59 61 63 63 63 61 61 58 54 55 57 61 64 66 65 65 64 63 62 60 59
44 36 40 46 43 44 50 48 52 54 53 53 53 57 59 61 62 61 61 61 61 62 62 62 61 57 57 61 56 55 57 54 54 54 54 54 54 54 56 56 60 62 62 63 63 61 59 56 52
41 38 42 48 49 51 50 49 50 49 50 54 53 53 60 60 61 61 62 63 62 63 60 61 59 57 56 56 52 51 50 50 51 52 52 53 53 52 52 52 52 52 54 52 54 52 52 52 52
38 45 45 48 48 48 47 50 49 52 55 58 54 57 59 59 60 61 62 63 62 61 60 60 59 57 55 53 51 50 49 49 49 51 52 51 50 50 51 51 51 51 51 50 50 50 51 52 52
39 41 45 47 47 47 50 47 48 47 54 57 57 56 58 58 59 60 63 63 62 60 60 59 59 57 56 53 51 49 49 49 50 50 52 52 50 50 51 51 51 50 51 50 50 50 51 53 57
41 41 42 44 46 46 47 49 46 50 52 53 54 54 56 58 59 58 58 59 60 61 61 61 60 59 57 54 51 50 50 50 50 50 51 52 51 50 51 51 51 51 51 50 50 50 50 55 56
42 35 39 41 43 43 46 41 42 52 50 52 53 54 55 57 59 58 61 61 62 63 63 62 61 60 57 55 53 51 50 51 49 50 52 52 52 52 51 51 50 51 51 51 51 51 51 57 57
35 33 28 38 41 43 42 33 46 47 45 48 50 50 52 55 57 59 61 63 63 63 63 63 64 60 58 56 54 53 50 49 49 50 50 52 53 52 51 51 51 51 52 51 51 50 52 55 55
27 20 24 29 40 39 37 31 41 49 48 47 48 50 50 52 53 57 59 61 62 63 64 63 62 59 57 56 54 52 51 49 49 49 50 52 53 53 51 51 51 52 51 50 52 50 50 54 55
20 19 25 24 33 36 34 33 41 45 45 46 48 50 52 49 54 57 58 61 62 63 64 64 62 59 58 56 55 51 49 48 48 48 50 52 52 53 51 51 51 52 51 50 51 51 53 55 56
25 22 21 26 34 30 30 31 37 42 43 42 44 48 51 53 55 57 59 60 61 61 62 62 63 59 58 56 54 52 50 46 46 48 51 51 52 52 51 51 51 51 51 51 52 54 56 55 56
26 23 21 27 33 30 28 26 34 39 41 44 45 47 50 53 50 53 54 58 59 60 62 62 63 59 59 58 57 53 48 46 48 48 50 51 52 52 52 52 51 52 51 51 52 55 54 54 54
26 23 22 23 29 30 26 23 30 39 43 45 47 50 52 53 55 55 51 56 58 59 61 62 63 61 61 58 54 48 48 46 46 46 48 49 51 52 52 52 52 52 54 51 51 52 54 52 53
21 28 27 26 22 16 26 10 27 34 39 44 45 47 50 52 55 56 53 54 57 59 63 63 63 62 61 58 55 52 54 51 49 50 50 49 51 51 51 52 52 53 53 52 51 52 51 53 49
25 29 27 25 21 19 20 13 23 33 33 38 42 44 47 50 53 54 54 55 58 60 61 63 62 61 60 57 57 55 54 54 47 46 47 50 49 51 51 52 52 52 53 52 52 51 51 51 50
30 26 25 24 21 9 22 18 20 25 32 36 42 46 47 49 50 53 57 55 57 60 61 61 61 60 61 58 56 55 55 50 49 49 49 49 50 50 50 51 52 53 53 53 53 52 52 51 51
28 18 -0 -1 3 5 24 21 24 33 38 40 41 45 48 51 48 52 52 50 54 57 59 60 60 60 61 58 56 55 55 51 51 50 51 50 49 49 50 51 50 52 53 53 53 52 52 51 50
23 21 7 1 6 12 24 16 26 37 43 46 47 48 50 52 54 53 54 54 52 56 58 60 59 60 61 59 56 56 56 53 54 52 52 52 52 52 51 51 51 51 53 53 52 52 51 51 50
23 15 27 16 16 11 17 23 33 38 39 42 43 46 46 50 53 52 54 53 52 55 58 59 60 60 62 60 57 55 56 53 54 53 53 53 52 52 50 51 51 51 52 53 52 52 51 51 50
26 30 16 18 7 7 16 20 24 31 35 40 39 39 40 46 46 48 46 49 52 56 59 60 61 60 62 62 58 55 56 54 54 53 51 52 52 51 50 51 51 51 52 52 52 50 51 51 49
22 19 19 20 16 10 6 15 32 33 36 36 39 40 40 44 46 44 43 43 47 54 58 61 61 60 60 61 59 56 55 54 54 53 52 52 51 51 51 52 51 51 52 52 52 51 50 50 49
19 19 22 11 8 14 14 14 36 37 37 37 39 40 43 45 43 43 43 41 43 46 55 60 60 59 60 61 59 56 54 54 52 52 52 52 51 52 52 52 52 52 52 52 52 50 51 50 49
MSLP
1012.17 1011.81 1011.78 1011.94 1013.35 1013.79 1013.07 1012.02 1010.99 1010.02 1009.05 1008.15 1007.73 1008.04 1007.95 1008.55 1009.12 1010.11 1009.81 1010.01 1010.21 1010.65 1011.01 1011.46 1011.79 1012.40 1012.91 1013.27 1013.52 1013.72 1014.01 1014.13 1014.25 1014.28 1014.35 1014.44 1014.44 1014.46 1014.39 1014.38 1014.26 1014.24 1014.09 1013.98 1013.95 1013.91 1013.83 1013.78 1013.65
1012.16 1011.85 1012.13 1012.96 1014.03 1014.26 1013.10 1011.63 1010.75 1009.89 1009.05 1008.49 1007.98 1008.22 1008.49 1008.99 1009.26 1009.75 1010.13 1010.45 1010.53 1010.78 1011.14 1011.55 1011.90 1012.40 1013.02 1013.39 1013.65 1013.90 1014.15 1014.31 1014.43 1014.46 1014.61 1014.65 1014.64 1014.64 1014.68 1014.68 1014.69 1014.43 1014.26 1014.21 1014.27 1014.20 1014.04 1013.96 1013.82
1012.03 1012.22 1013.18 1013.89 1014.45 1013.88 1012.80 1011.05 1010.35 1009.27 1008.44 1008.54 1008.51 1008.56 1008.86 1009.10 1009.54 1009.71 1009.83 1010.40 1010.95 1011.34 1011.43 1011.68 1012.06 1012.47 1013.11 1013.47 1013.75 1014.06 1014.26 1014.45 1014.56 1014.66 1014.74 1014.77 1014.83 1014.87 1014.88 1014.90 1014.88 1014.77 1014.72 1014.58 1014.47 1014.48 1014.38 1014.24 1014.08
1012.43 1013.10 1014.32 1014.46 1014.42 1013.29 1012.22 1010.89 1010.36 1009.53 1008.43 1008.07 1008.54 1008.93 1009.11 1009.00 1009.34 1009.77 1009.98 1010.69 1011.30 1011.71 1011.80 1011.89 1012.12 1012.81 1013.23 1013.56 1013.85 1014.17 1014.40 1014.57 1014.71 1014.81 1014.87 1014.96 1015.05 1015.09 1015.09 1015.16 1015.12 1015.12 1014.95 1014.92 1014.87 1014.81 1014.53 1014.40 1014.20
1013.31 1014.22 1014.95 1014.88 1014.13 1012.93 1011.84 1010.84 1010.28 1009.82 1009.21 1008.49 1008.63 1009.23 1009.61 1009.63 1009.28 1009.81 1010.33 1010.84 1011.46 1012.01 1012.17 1012.14 1012.42 1013.07 1013.32 1013.70 1014.01 1014.31 1014.50 1014.71 1014.88 1015.04 1015.16 1015.26 1015.29 1015.37 1015.41 1015.46 1015.41 1015.30 1015.19 1015.13 1015.04 1014.92 1014.78 1014.59 1014.37
1014.32 1015.08 1015.79 1015.32 1014.07 1012.67 1011.65 1010.79 1010.18 1009.74 1008.92 1008.55 1009.03 1009.62 1010.24 1010.27 1010.07 1010.20 1010.77 1011.08 1011.64 1012.01 1012.36 1012.39 1012.81 1013.32 1013.51 1013.83 1014.16 1014.49 1014.67 1014.90 1015.13 1015.35 1015.47 1015.53 1015.65 1015.68 1015.74 1015.76 1015.57 1015.36 1015.31 1015.29 1015.12 1015.00 1014.99 1014.65 1014.57
1014.60 1015.46 1015.59 1014.99 1013.93 1012.74 1011.42 1010.30 1010.06 1009.55 1009.14 1008.80 1008.97 1009.91 1010.57 1010.60 1010.71 1010.67 1011.08 1011.59 1011.88 1012.24 1012.62 1012.80 1013.11 1013.59 1013.78 1014.05 1014.35 1014.69 1014.88 1015.11 1015.37 1015.58 1015.72 1015.84 1015.99 1016.08 1016.07 1015.97 1015.80 1015.59 1015.63 1015.72 1015.45 1015.41 1015.30 1015.09 1014.94
1014.58 1015.20 1015.49 1014.82 1013.93 1012.63 1011.31 1010.60 1009.89 1009.80 1009.16 1008.97 1009.29 1010.02 1010.47 1010.33 1010.83 1011.26 1011.54 1011.99 1012.36 1012.56 1012.83 1013.13 1013.56 1013.95 1014.14 1014.33 1014.62 1014.96 1015.17 1015.35 1015.66 1015.93 1016.08 1016.19 1016.31 1016.46 1016.43 1016.42 1016.11 1015.93 1015.87 1015.95 1015.87 1015.85 1015.74 1015.52 1015.36
1014.49 1015.43 1015.62 1014.63 1013.85 1012.63 1011.71 1011.24 1010.29 1009.93 1009.88 1009.65 1010.01 1010.06 1010.08 1010.16 1010.86 1011.46 1011.99 1012.35 1012.71 1012.94 1013.03 1013.39 1013.81 1014.29 1014.54 1014.71 1014.90 1015.25 1015.49 1015.64 1015.95 1016.24 1016.35 1016.51 1016.74 1016.81 1016.72 1016.66 1016.43 1016.29 1016.33 1016.36 1016.24 1016.22 1016.13 1015.90 1015.78
1014.94 1015.48 1015.00 1014.08 1013.45 1012.96 1012.24 1011.82 1011.45 1010.70 1010.45 1010.08 1010.24 1010.38 1010.32 1010.43 1010.86 1011.26 1011.58 1011.95 1012.35 1012.82 1013.13 1013.41 1013.81 1014.43 1014.85 1014.97 1015.18 1015.50 1015.80 1015.97 1016.22 1016.51 1016.58 1016.71 1016.91 1016.98 1016.98 1016.98 1016.87 1016.86 1016.82 1016.69 1016.60 1016.63 1016.49 1016.20 1016.17
1015.45 1015.47 1014.91 1014.17 1013.86 1013.58 1012.91 1012.33 1011.62 1011.39 1010.94 1010.31 1010.39 1010.71 1011.00 1010.99 1011.06 1011.24 1011.45 1011.53 1011.78 1012.41 1012.93 1013.16 1013.78 1014.34 1014.87 1015.18 1015.53 1015.78 1016.12 1016.30 1016.41 1016.61 1016.70 1016.79 1017.06 1017.17 1017.32 1017.42 1017.38 1017.35 1017.28 1017.28 1017.17 1017.16 1016.99 1016.73 1016.60
1016.23 1015.65 1015.72 1015.06 1014.69 1014.48 1013.68 1012.78 1011.96 1011.60 1010.83 1010.35 1010.39 1010.50 1010.95 1011.16 1010.96 1010.95 1011.14 1011.36 1011.73 1012.23 1012.70 1012.92 1013.33 1014.18 1014.73 1015.20 1015.62 1015.84 1016.24 1016.46 1016.63 1016.67 1016.76 1016.93 1017.27 1017.41 1017.62 1017.75 1017.76 1017.68 1017.62 1017.66 1017.65 1017.62 1017.44 1017.20 1017.00
1016.90 1016.72 1016.27 1015.79 1015.14 1014.76 1013.73 1013.01 1012.47 1011.70 1011.05 1010.75 1010.68 1010.83 1010.87 1010.91 1010.81 1010.81 1010.93 1011.15 1011.59 1011.81 1012.28 1012.69 1012.96 1013.71 1014.39 1015.10 1015.59 1015.90 1016.18 1016.43 1016.57 1016.75 1016.79 1016.95 1017.24 1017.54 1017.77 1017.93 1017.98 1017.92 1017.78 1017.92 1018.01 1018.00 1017.83 1017.57 1017.25
1017.94 1017.46 1016.81 1016.13 1015.33 1014.74 1014.26 1012.78 1012.79 1011.63 1011.10 1011.02 1011.03 1010.86 1010.59 1010.36 1010.17 1010.62 1010.77 1010.78 1010.96 1011.39 1011.64 1012.20 1012.69 1013.10 1013.87 1014.69 1015.29 1015.76 1016.00 1016.27 1016.57 1016.73 1016.82 1016.97 1017.19 1017.53 1017.81 1018.07 1018.15 1018.09 1017.96 1018.16 1018.27 1018.37 1018.23 1017.83 1017.72
1018.28 1018.17 1017.41 1016.51 1016.42 1015.31 1014.41 1013.11 1012.49 1011.69 1011.37 1010.96 1010.90 1010.65 1010.26 1009.99 1010.03 1009.83 1009.54 1009.95 1010.06 1010.37 1011.04 1011.47 1012.10 1012.67 1013.30 1013.98 1014.74 1015.50 1015.77 1016.16 1016.53 1016.70 1016.83 1017.00 1017.23 1017.49 1017.79 1018.11 1018.22 1018.23 1018.13 1018.32 1018.48 1018.62 1018.48 1018.04 1018.02
1019.46 1019.31 1019.18 1017.82 1017.42 1016.14 1016.00 1013.85 1012.85 1012.39 1012.46 1011.89 1011.08 1010.58 1010.39 1009.72 1009.33 1009.10 1009.28 1009.41 1009.76 1010.04 1010.19 1010.87 1011.43 1012.17 1012.83 1013.29 1014.22 1014.93 1015.57 1015.98 1016.38 1016.61 1016.86 1017.00 1017.19 1017.43 1017.83 1018.11 1018.26 1018.28 1018.32 1018.53 1018.71 1018.95 1018.87 1018.65 1018.58
1021.96 1022.18 1021.55 1020.33 1019.25 1019.01 1017.99 1015.19 1014.30 1012.97 1012.40 1012.03 1011.29 1010.50 1010.06 1009.42 1009.06 1008.82 1008.73 1008.80 1009.08 1009.23 1009.57 1010.15 1010.65 1011.51 1012.38 1013.02 1013.70 1014.48 1015.19 1015.69 1016.18 1016.51 1016.85 1017.03 1017.15 1017.45 1017.77 1018.09 1018.31 1018.35 1018.58 1018.82 1018.90 1019.23 1019.21 1019.14 1019.07
1024.31 1023.86 1022.81 1022.30 1020.77 1019.40 1018.55 1014.82 1014.68 1014.05 1013.00 1011.88 1011.01 1010.12 1009.51 1009.08 1008.45 1008.07 1007.88 1008.06 1008.32 1008.77 1009.12 1009.53 1010.17 1011.03 1012.00 1012.88 1013.67 1014.51 1015.18 1015.53 1015.93 1016.35 1016.68 1016.95 1017.17 1017.42 1017.76 1018.14 1018.36 1018.42 1018.80 1019.13 1019.10 1019.30 1019.47 1019.40 1019.43
1025.06 1024.67 1023.78 1022.64 1021.71 1020.88 1018.90 1016.00 1014.47 1013.96 1012.72 1011.73 1010.59 1009.88 1008.75 1008.28 1007.57 1007.39 1007.41 1007.34 1007.61 1008.12 1008.69 1009.12 1009.52 1010.37 1011.31 1012.44 1013.34 1014.33 1015.09 1015.57 1015.90 1016.16 1016.37 1016.76 1017.09 1017.37 1017.71 1018.08 1018.38 1018.47 1018.82 1019.07 1019.17 1019.28 1019.54 1019.76 1019.66
1024.78 1024.42 1023.81 1022.60 1022.16 1021.69 1020.10 1015.83 1012.89 1013.46 1011.29 1010.72 1009.85 1008.47 1008.15 1007.73 1007.27 1006.88 1006.75 1006.92 1007.03 1007.14 1007.60 1008.33 1008.87 1009.74 1010.33 1011.13 1012.41 1013.31 1014.21 1015.30 1015.62 1015.91 1016.19 1016.54 1016.93 1017.25 1017.64 1017.95 1018.38 1018.47 1018.76 1019.12 1019.12 1019.17 1019.59 1019.77 1019.80
1024.81 1024.50 1024.31 1023.93 1022.48 1021.64 1020.13 1015.83 1012.78 1011.41 1009.86 1009.04 1008.03 1007.34 1007.18 1006.98 1006.79 1006.39 1006.34 1006.31 1006.22 1006.32 1006.60 1007.37 1008.07 1008.75 1009.49 1010.47 1011.95 1013.17 1014.12 1015.05 1015.79 1016.14 1016.20 1016.36 1016.66 1017.06 1017.41 1017.80 1018.16 1018.51 1018.72 1019.06 1019.23 1019.18 1019.49 1019.94 1020.08
1024.85 1024.67 1024.59 1023.97 1023.55 1022.62 1021.84 1018.57 1013.36 1011.42 1009.65 1008.30 1007.85 1007.50 1006.73 1006.31 1006.00 1005.71 1005.52 1005.46 1005.59 1005.43 1005.70 1006.23 1007.08 1007.81 1008.88 1009.82 1010.94 1012.07 1012.39 1013.56 1014.30 1014.87 1015.68 1016.07 1016.41 1016.85 1017.22 1017.60 1017.96 1018.40 1018.63 1018.90 1019.31 1019.31 1019.48 1019.88 1020.25
1025.18 1024.69 1024.55 1024.04 1023.57 1023.11 1021.95 1020.96 1012.63 1011.99 1010.29 1008.97 1007.88 1007.20 1006.45 1005.77 1005.28 1004.87 1004.61 1004.41 1004.42 1004.68 1004.84 1005.32 1006.16 1007.07 1007.88 1009.00 1009.71 1010.92 1012.04 1012.72 1013.38 1014.54 1015.46 1015.93 1016.33 1016.62 1017.03 1017.39 1017.78 1018.21 1018.47 1018.84 1019.17 1019.59 1019.59 1019.95 1020.36
1025.08 1024.96 1024.12 1023.60 1023.63 1023.33 1020.83 1020.09 1013.82 1012.54 1010.93 1009.44 1008.06 1006.90 1006.23 1005.56 1004.64 1004.05 1003.47 1003.42 1003.52 1003.75 1004.01 1004.49 1005.31 1006.11 1006.92 1007.99 1008.98 1009.82 1010.95 1012.05 1012.91 1013.85 1014.89 1015.55 1016.07 1016.50 1016.78 1017.16 1017.52 1017.81 1018.16 1018.53 1018.88 1019.41 1019.66 1020.00 1020.34
1025.48 1025.44 1025.22 1024.87 1024.17 1022.80 1020.35 1018.38 1014.79 1012.48 1010.35 1009.31 1008.08 1006.94 1005.93 1005.34 1004.71 1004.02 1003.50 1003.14 1002.94 1003.07 1003.39 1003.81 1004.36 1005.15 1006.16 1007.13 1008.11 1008.98 1009.88 1011.07 1011.90 1012.63 1013.57 1014.67 1015.49 1015.99 1016.37 1016.79 1017.27 1017.60 1017.82 1018.12 1018.51 1019.14 1019.59 1019.90 1020.29
1026.13 1026.28 1026.89 1026.12 1024.51 1022.01 1020.30 1016.98 1013.26 1011.53 1009.72 1008.75 1007.79 1006.74 1005.72 1004.86 1003.98 1003.23 1002.86 1002.64 1002.26 1002.21 1002.40 1002.64 1003.18 1003.95 1004.92 1006.02 1006.95 1008.04 1009.02 1010.16 1011.06 1011.99 1012.65 1013.46 1014.29 1014.96 1015.69 1016.33 1016.78 1017.16 1017.52 1017.89 1018.34 1018.87 1019.36 1019.67 1020.10
1026.20 1026.35 1026.16 1025.66 1024.08 1022.45 1019.04 1016.08 1013.44 1011.09 1009.25 1008.41 1007.73 1006.72 1005.91 1005.08 1003.93 1002.81 1002.31 1001.82 1001.62 1001.45 1001.25 1001.52 1002.26 1003.03 1003.66 1004.64 1005.99 1006.96 1008.03 1009.19 1010.07 1011.16 1011.96 1012.78 1013.64 1014.43 1015.15 1015.87 1016.46 1016.87 1017.25 1017.59 1018.13 1018.56 1019.07 1019.38 1019.90
1026.46 1026.37 1025.93 1025.72 1024.09 1021.46 1018.66 1016.31 1013.10 1010.85 1009.67 1008.65 1008.11 1007.54 1006.85 1005.43 1003.88 1002.71 1002.01 1001.49 1000.95 1000.65 1000.46 1000.52 1000.66 1001.17 1002.24 1003.63 1004.88 1005.84 1006.78 1008.00 1009.20 1010.43 1011.46 1012.15 1013.01 1013.82 1014.67 1015.44 1016.08 1016.64 1017.11 1017.49 1017.97 1018.38 1018.85 1019.19 1019.77
1026.84 1026.47 1026.48 1026.21 1025.09 1022.72 1020.01 1016.83 1012.89 1012.01 1011.28 1009.91 1008.87 1007.98 1007.16 1005.78 1004.36 1003.04 1002.41 1001.48 1000.80 1000.06 999.47 999.18 999.75 1000.42 1001.20 1002.03 1003.46 1004.72 1005.94 1007.13 1008.45 1009.46 1010.56 1011.47 1012.42 1013.18 1014.04 1014.80 1015.56 1016.16 1016.76 1017.26 1017.79 1018.20 1018.68 1019.02 1019.67
1026.70 1026.79 1026.69 1026.56 1024.86 1023.11 1021.47 1016.46 1013.98 1012.91 1012.24 1010.54 1009.00 1008.12 1006.92 1005.70 1004.45 1003.34 1002.42 1001.35 1000.50 999.56 998.44 997.97 998.60 999.49 1000.03 1000.99 1002.50 1003.80 1005.10 1006.19 1007.49 1008.63 1009.66 1010.78 1011.69 1012.53 1013.29 1014.22 1015.05 1015.68 1016.28 1016.86 1017.40 1017.96 1018.47 1018.80 1019.53
Wind_Speed
9 7 1 5 4 5 3 6 3 7 7 3 3 2 5 3 3 4 3 6 14 14 12 13 18 17 13 12 12 11 10 9 8 8 8 8 8 8 9 9 8 9 8 11 9 9 9 9 9
4 4 5 3 5 2 5 5 2 3 4 2 2 1 4 1 2 7 9 8 15 13 10 12 18 17 13 12 12 11 10 9 8 9 8 8 9 9 9 9 8 7 8 10 10 9 9 9 9
2 4 4 4 3 6 5 6 3 8 6 1 1 3 2 3 2 11 2 14 11 9 9 12 17 17 14 13 12 11 10 9 8 9 8 9 9 8 8 9 8 10 9 8 10 11 11 10 10
3 5 5 4 6 7 6 3 3 10 9 3 3 4 1 1 7 6 14 14 11 8 8 14 16 15 15 14 13 11 10 10 9 9 9 9 9 9 8 9 9 9 10 10 10 12 12 12 12
5 3 2 1 6 6 4 5 5 7 4 4 1 3 2 5 7 16 15 13 12 7 6 10 16 15 15 14 13 12 11 10 9 8 9 9 9 9 9 9 8 9 8 7 7 9 11 10 11
4 4 3 5 7 6 6 5 3 3 4 3 3 4 1 1 12 13 14 11 10 10 8 10 12 14 13 13 12 12 11 10 10 9 9 10 10 9 9 8 8 9 11 12 10 10 11 12 11
6 5 4 3 5 6 4 1 3 3 4 5 6 5 1 4 7 10 9 8 7 6 6 6 7 9 10 10 10 10 11 11 10 9 9 10 9 9 9 8 8 11 13 12 11 12 12 13 12
5 4 3 4 4 7 3 7 4 2 5 1 1 5 5 5 8 8 8 7 6 6 6 7 6 5 6 6 9 9 8 10 10 9 9 8 9 9 8 6 6 11 11 12 12 12 12 12 12
4 4 3 5 4 5 3 7 6 4 3 4 3 1 3 14 12 10 8 7 6 5 6 6 7 5 5 5 6 9 9 10 9 7 8 6 3 4 5 5 9 11 13 13 13 12 10 11 11
3 4 9 5 3 3 6 2 7 6 7 4 2 3 5 14 15 14 15 12 11 13 9 9 9 6 5 4 5 6 4 4 4 4 4 3 3 2 4 6 9 12 12 13 12 10 10 9 4
2 5 2 4 4 8 6 7 2 4 6 6 4 3 9 10 12 14 14 14 15 14 8 10 8 7 6 5 3 3 2 3 3 4 4 4 3 3 3 3 3 4 7 4 6 5 4 6 5
4 4 4 7 8 8 8 7 5 8 11 7 4 5 12 15 16 17 15 16 14 14 10 11 12 9 6 4 4 4 4 3 3 4 5 4 3 4 3 3 2 4 3 5 4 3 4 6 6
3 5 9 12 9 8 9 8 10 5 10 10 4 6 12 13 13 11 14 14 13 14 11 12 12 10 8 6 4 4 4 4 4 4 4 4 4 4 4 3 3 3 4 4 4 4 4 6 10
5 6 9 6 13 7 12 19 4 7 5 9 7 10 11 15 17 7 9 13 14 13 13 13 13 12 10 7 6 5 4 4 4 4 4 5 4 4 4 4 3 3 4 4 4 4 4 5 5
6 6 6 5 10 6 8 8 8 11 5 11 10 10 12 16 12 16 18 15 16 13 13 14 14 14 13 11 8 5 5 5 4 4 5 6 5 5 5 4 4 3 3 6 5 4 3 5 5
6 4 7 5 21 6 11 6 10 10 11 15 13 9 9 14 16 17 14 14 12 12 15 13 13 14 13 11 8 6 5 5 4 4 4 6 6 6 5 4 4 4 4 4 4 3 3 5 6
10 5 9 12 17 16 9 17 10 25 19 16 15 15 9 11 10 13 14 15 14 15 14 14 13 13 13 11 8 7 7 5 5 4 4 6 6 6 5 4 4 5 4 4 4 3 2 4 6
10 6 6 12 12 19 21 31 15 13 18 19 18 18 16 11 16 15 16 15 15 14 13 13 10 13 12 9 7 4 4 4 5 5 4 6 5 6 5 4 5 5 4 4 3 3 3 3 6
5 5 12 11 10 15 10 30 24 18 20 21 22 19 19 16 16 10 13 15 15 14 14 14 15 14 12 8 8 6 7 4 3 4 7 7 6 6 6 4 5 5 5 5 5 4 6 3 2
5 8 7 12 15 16 12 36 32 23 30 26 26 25 21 16 9 9 9 12 16 18 18 17 17 14 13 10 8 4 5 2 2 4 5 6 7 7 6 6 5 6 5 5 4 4 2 2 3
9 7 9 16 18 10 14 20 14 10 19 20 24 26 20 21 18 13 9 14 16 19 20 19 19 17 15 13 8 4 5 4 3 3 4 5 7 7 7 7 6 6 5 5 4 4 4 2 2
10 4 10 17 15 6 13 16 18 9 19 22 10 14 16 16 15 13 10 11 16 18 18 20 20 18 16 17 15 13 11 9 6 6 5 5 7 8 7 8 7 8 5 5 4 3 3 2 1
9 6 15 17 16 11 2 6 13 14 16 17 12 10 12 13 14 17 14 14 15 17 18 19 19 18 19 18 18 14 11 8 5 5 7 8 6 7 8 8 7 7 6 5 6 4 4 3 2
12 11 17 15 5 2 7 9 10 6 9 17 13 16 11 12 14 16 14 12 12 15 17 18 19 20 20 19 19 20 18 11 10 11 10 8 7 6 7 8 8 8 6 7 6 5 6 5 3
8 7 7 8 3 5 10 13 17 21 24 22 24 23 21 19 11 12 12 9 10 15 17 17 20 21 21 21 20 19 18 16 15 15 12 12 9 7 9 9 8 7 8 6 5 5 5 6 4
8 1 2 6 7 16 14 10 7 12 23 25 28 22 25 23 19 15 14 11 12 14 18 20 22 23 23 22 22 18 18 12 12 13 11 11 11 10 10 9 8 7 8 7 6 4 4 6 5
3 1 6 10 14 10 7 9 16 20 19 15 17 17 17 19 21 20 16 12 10 13 18 21 21 22 24 24 20 19 18 16 15 15 13 11 10 8 11 10 10 8 7 7 7 5 5 6 5
3 9 5 3 7 12 10 13 13 16 23 28 16 20 26 28 18 13 9 10 10 13 16 20 23 26 24 24 20 18 20 18 16 13 14 14 12 11 12 11 10 9 8 7 7 5 5 7 4
4 1 2 4 6 8 8 10 16 22 20 22 25 19 26 25 23 13 12 9 11 13 16 20 22 23 23 24 21 20 18 17 16 15 14 14 13 13 13 13 11 11 9 8 7 6 7 8 6
6 6 2 3 9 11 14 16 16 18 35 31 25 23 26 25 17 14 14 10 11 14 15 20 20 21 22 23 21 20 18 18 17 16 16 15 15 14 15 14 13 11 10 9 9 8 8 10 9
Wind_Direction
324 313 75 42 61 62 256 266 298 302 319 326 307 266 153 90 168 202 297 149 135 144 145 145 135 137 146 145 139 131 128 122 120 111 104 97 92 84 74 56 52 42 44 33 20 20 15 7 7
326 333 39 80 100 130 264 249 217 228 269 326 98 17 28 118 96 116 123 156 148 143 143 142 134 134 153 148 141 135 134 128 123 115 109 102 90 78 70 67 57 45 35 32 30 23 15 14 15
294 43 85 106 132 193 215 219 275 305 303 160 140 63 164 167 39 157 178 143 136 132 134 138 138 132 157 150 142 141 135 134 127 120 114 102 90 82 82 67 62 46 38 34 39 38 38 33 35
42 11 37 99 223 252 216 288 333 332 327 174 151 95 348 294 156 172 135 136 128 129 135 142 137 145 159 151 148 145 141 138 131 125 113 102 97 89 78 75 68 51 47 54 54 45 48 53 42
34 53 62 255 250 256 259 280 305 296 274 274 208 179 339 1 113 139 144 136 137 135 140 136 131 161 159 153 151 148 146 139 127 120 111 106 98 93 84 78 73 65 56 54 63 57 42 36 39
43 92 72 244 253 273 290 254 255 264 267 288 77 110 329 77 137 149 146 138 142 143 149 136 141 164 156 155 152 151 145 136 128 124 119 108 99 93 88 86 80 62 58 51 44 70 37 47 53
119 95 214 253 259 296 256 227 262 269 289 306 150 113 271 178 157 137 126 123 127 132 132 118 129 160 152 145 146 149 146 137 131 128 120 111 104 96 91 77 65 53 62 57 62 57 52 49 46
105 97 178 247 236 276 288 324 318 357 284 8 81 181 217 177 137 113 109 112 119 131 130 129 123 130 132 135 137 137 132 131 132 125 112 101 99 102 86 47 67 73 63 65 63 59 59 54 44
132 73 210 246 183 245 354 16 321 295 318 12 15 77 300 135 135 137 138 138 141 138 138 145 131 134 134 131 136 128 131 126 125 124 124 102 98 89 64 55 59 78 74 71 71 65 61 53 34
111 150 214 212 223 297 319 335 339 341 348 315 317 14 90 141 159 162 173 174 172 178 164 156 145 145 143 143 136 134 139 129 132 142 138 124 123 98 75 60 70 69 72 74 66 60 55 50 23
28 211 241 296 311 345 323 322 250 317 301 234 286 146 161 165 172 181 186 190 183 183 174 163 150 149 155 149 148 134 137 142 145 158 152 139 111 84 77 65 55 62 66 51 51 32 26 40 24
0 307 18 304 351 337 308 304 266 197 234 265 307 186 178 188 190 191 195 197 186 188 182 172 160 163 167 146 165 156 153 166 165 172 158 137 126 111 106 95 94 78 76 72 52 39 34 39 25
191 347 330 318 308 289 282 260 258 266 270 277 266 175 200 203 211 209 202 197 193 189 183 180 163 165 168 161 163 164 173 174 175 169 165 143 134 130 127 114 106 94 92 86 65 48 42 48 55
323 291 291 287 290 262 266 273 163 284 279 248 237 224 215 212 208 192 199 196 194 191 184 178 178 170 165 165 169 184 165 176 170 170 174 155 142 137 130 132 114 99 102 91 78 60 57 60 35
287 310 321 309 352 290 310 273 231 245 295 269 251 234 226 222 218 211 207 204 195 195 182 181 180 171 169 168 171 171 173 165 171 179 172 156 154 150 137 142 122 130 112 96 79 56 43 64 45
0 47 360 350 10 348 359 277 316 0 351 309 298 276 237 240 223 223 217 217 201 190 191 179 178 172 173 164 169 165 172 161 173 172 173 165 159 149 137 142 132 139 110 97 88 72 60 73 59
34 336 341 327 343 342 21 294 294 315 313 299 292 290 265 246 236 231 218 214 209 205 193 188 169 169 171 169 165 161 168 163 169 164 173 173 160 155 140 148 141 131 114 99 109 73 70 81 73
322 320 297 301 324 304 300 283 286 295 298 292 290 283 279 254 245 230 214 210 207 207 205 188 164 167 165 159 151 135 154 162 156 171 177 170 164 158 144 150 142 132 118 115 114 108 65 91 93
259 272 295 288 288 323 313 295 287 286 277 282 280 278 273 266 256 247 225 211 200 201 198 193 182 171 160 162 163 167 182 173 164 171 174 170 167 160 153 153 141 135 134 153 143 116 114 99 87
351 309 307 305 337 325 308 286 285 273 265 256 263 263 264 273 267 253 218 212 203 195 197 197 194 171 176 167 172 160 138 151 161 168 171 171 170 163 160 158 152 145 141 145 137 117 122 80 19
347 329 329 309 322 257 297 278 273 290 259 263 248 257 254 255 261 259 223 214 203 201 197 196 196 185 183 165 142 98 92 88 103 187 182 182 173 168 163 165 157 155 159 153 164 134 113 112 40
329 355 322 313 326 317 47 292 299 259 264 266 277 259 268 258 253 253 234 216 210 207 199 195 195 187 184 169 167 175 188 172 186 170 176 171 174 175 168 168 169 166 168 157 171 157 124 108 115
275 296 302 289 279 300 207 253 273 323 302 305 301 275 261 252 239 240 236 215 207 203 200 197 192 188 182 180 180 180 188 178 140 130 160 175 179 177 175 175 172 177 172 173 162 168 151 135 134
285 305 286 274 241 261 254 210 283 306 328 316 322 316 289 283 250 243 240 215 210 205 199 195 193 191 184 182 183 184 187 170 158 160 173 180 181 183 182 178 176 183 180 177 174 175 162 160 151
351 357 339 356 11 229 275 273 261 292 275 283 283 290 291 290 280 269 251 223 208 200 199 198 192 193 189 185 186 187 184 175 176 172 176 172 179 189 192 180 181 181 184 177 169 166 169 163 168
306 187 174 295 309 293 297 260 251 294 291 285 288 287 286 282 277 258 251 243 215 207 199 197 195 195 191 188 189 187 183 178 181 180 176 181 184 184 178 180 179 174 176 173 169 163 172 161 170
340 233 253 269 264 268 242 263 284 273 285 316 305 305 308 302 289 266 254 239 226 216 204 199 197 200 194 191 188 186 182 176 181 181 177 177 174 173 174 175 176 176 175 173 168 169 174 160 161
38 304 332 325 297 289 297 307 298 300 311 315 324 329 318 313 311 292 264 257 235 223 214 205 199 195 193 191 189 184 182 178 178 170 177 177 172 166 171 174 176 174 176 173 167 160 162 150 150
307 323 257 263 252 307 313 298 278 303 320 327 319 321 308 300 298 298 290 274 264 253 222 210 203 196 193 191 185 181 180 175 174 176 175 175 168 169 174 176 174 175 175 172 168 162 160 151 148
176 307 80 344 307 273 270 262 289 331 326 316 309 320 297 288 296 298 294 275 281 260 227 205 197 198 194 188 183 181 174 174 174 177 174 171 173 174 173 173 175 178 177 173 173 165 170 157 162